DW7287 Weather Reports


Display with metric or nautical units.
time (UTC)temp
F
wind
direction
speed
MPH
gust
MPH
rain 1hr
in
rain 24hr
in
rain mn
in
humidity
%
barometer
mb
20260906121602 69 0 0.0 1.0 0.00 0.28 0.00 97 1015.5
20260906120126 69 0 0.0 1.0 0.00 0.28 0.00 97 1015.2
20260906114603 69 0 0.0 1.0 0.00 0.58 0.00 97 1015.0
20260906113101 69 0 0.0 1.0 0.00 0.58 0.00 97 1014.7
20260906111559 69 0 0.0 1.0 0.00 0.58 0.00 97 1014.5
20260906110111 69 0 0.0 3.0 0.00 0.58 0.00 97 1014.4
20260906104601 69 0 0.0 2.0 0.00 0.58 0.00 97 1014.0
20260906103101 69 0 0.0 3.0 0.00 0.58 0.00 97 1013.9
20260906101604 69 0 0.0 2.0 0.00 0.58 0.00 97 1013.8
20260906100105 69 0 0.0 2.0 0.00 0.58 0.00 96 1013.7
20260906094606 69 0 0.0 3.0 0.00 0.58 0.00 96 1013.7
20260906093117 69 360 0.0 2.0 0.00 0.58 0.00 96 1013.8
20260906091605 68 360 0.0 1.0 0.00 0.58 0.00 96 1013.8
20260906090133 68 0 0.0 2.0 0.00 0.58 0.00 96 1013.9
20260906084602 68 360 0.0 2.0 0.00 0.58 0.00 96 1013.9
20260906083100 68 0 0.0 1.0 0.00 0.58 0.00 96 1013.8
20260906081604 68 0 0.0 1.0 0.00 0.58 0.00 96 1013.8
20260906080105 68 0 0.0 1.0 0.00 0.58 0.00 96 1013.8
20260906074604 68 0 0.0 1.0 0.00 0.58 0.00 96 1013.6
20260906073110 68 0 0.0 1.0 0.00 0.58 0.00 96 1013.7
20260906071611 68 0 0.0 2.0 0.00 0.58 0.00 96 1013.7
20260906070105 68 360 0.0 1.0 0.00 0.58 0.00 96 1013.7
20260906064604 68 360 1.0 2.0 0.00 0.58 0.00 96 1013.8
20260906063103 68 0 0.0 1.0 0.00 0.58 0.00 95 1013.7
20260906061600 68 360 0.0 0.0 0.00 0.58 0.00 95 1013.8
20260906054603 68 360 0.0 1.0 0.00 0.58 0.00 95 1013.8
20260906053105 69 0 0.0 0.0 0.00 0.58 0.00 95 1013.8
20260906051607 69 0 0.0 1.0 0.00 0.58 0.00 95 1013.7
20260906050126 69 0 0.0 1.0 0.00 0.58 0.00 94 1013.7
20260906044602 69 0 0.0 1.0 0.00 0.58 0.00 94 1013.7
20260906043109 69 0 0.0 0.0 0.00 0.58 0.00 95 1013.6
20260906041606 69 0 0.0 0.0 0.00 0.58 0.00 95 1013.5
20260906040114 70 0 0.0 1.0 0.00 0.58 0.00 95 1013.6
20260906034603 70 0 0.0 0.0 0.00 0.58 0.58 95 1013.6
20260906033103 70 0 0.0 0.0 0.00 0.58 0.58 95 1013.9
20260906031606 70 0 0.0 1.0 0.00 0.58 0.58 95 1014.0
20260906030134 70 0 0.0 1.0 0.00 0.58 0.58 94 1014.1
20260906024609 70 0 0.0 1.0 0.00 0.58 0.58 94 1014.3
20260906023112 70 0 0.0 2.0 0.00 0.58 0.58 94 1014.2
20260906021612 71 0 0.0 0.0 0.00 0.58 0.58 93 1014.0
20260906014625 71 0 0.0 1.0 0.00 0.58 0.58 92 1013.9
20260906013103 72 0 0.0 1.0 0.00 0.58 0.58 92 1013.7
20260906011606 72 0 0.0 1.0 0.00 0.58 0.58 91 1013.5
20260906004608 73 0 0.0 1.0 0.00 0.58 0.58 90 1013.1
20260906003109 74 0 0.0 1.0 0.00 0.58 0.58 89 1012.8
20260906001603 74 0 0.0 1.0 0.00 0.58 0.58 88 1013.0
20260906000104 76 0 0.0 1.0 0.00 0.58 0.58 87 1013.2
20260905234615 76 0 0.0 0.0 0.00 0.58 0.58 86 1013.2
20260905233104 76 0 0.0 0.0 0.00 0.58 0.58 84 1013.1
20260905231603 77 0 0.0 0.0 0.00 0.58 0.58 82 1013.0
20260905230109 78 0 0.0 1.0 0.00 0.58 0.58 82 1013.1
20260905224610 79 0 0.0 2.0 0.00 0.58 0.58 80 1013.1
20260905223100 80 0 0.0 1.0 0.00 0.58 0.58 79 1013.2
20260905221600 80 0 0.0 2.0 0.00 0.58 0.58 78 1013.2
20260905220107 80 0 1.0 3.0 0.00 0.58 0.58 76 1013.2
20260905214610 81 0 0.0 2.0 0.00 0.58 0.58 74 1013.2
20260905213109 81 0 1.0 4.0 0.00 0.58 0.58 72 1012.9
20260905211601 81 0 0.0 2.0 0.00 0.58 0.58 75 1012.8
20260905210109 81 0 0.0 4.0 0.00 0.58 0.58 74 1012.8
20260905204600 82 0 1.0 6.0 0.00 0.58 0.58 71 1013.0
20260905203108 81 288 0.0 7.0 0.00 0.58 0.58 71 1012.8
20260905201607 81 0 0.0 2.0 0.00 0.58 0.58 72 1013.0
20260905200107 81 0 0.0 3.0 0.00 0.58 0.58 73 1013.1
20260905194608 81 302 0.0 3.0 0.00 0.58 0.58 72 1013.2
20260905193106 82 318 0.0 3.0 0.00 0.58 0.58 71 1013.3
20260905191615 82 234 0.0 3.0 0.00 0.58 0.58 70 1013.5
20260905190105 81 0 0.0 3.0 0.00 0.58 0.58 71 1013.9
20260905184611 81 263 1.0 4.0 0.00 0.58 0.58 74 1013.9
20260905183103 80 0 1.0 3.0 0.00 0.58 0.58 73 1014.1
20260905181604 80 0 0.0 3.0 0.00 0.58 0.58 75 1014.3
20260905174614 80 116 0.0 3.0 0.00 0.58 0.58 75 1014.3
20260905173109 80 0 1.0 5.0 0.00 0.58 0.58 74 1014.3
20260905171559 79 0 1.0 6.0 0.00 0.58 0.58 75 1014.5
20260905170106 79 0 1.0 4.0 0.00 0.58 0.58 78 1014.6
20260905164602 78 0 0.0 3.0 0.00 0.58 0.58 80 1015.2
20260905163105 78 0 0.0 3.0 0.00 0.58 0.58 79 1015.7
20260905161604 77 85 1.0 3.0 0.00 0.58 0.58 85 1015.7
20260905160105 74 349 0.0 2.0 0.00 0.58 0.58 88 1015.5
20260905154604 74 318 1.0 3.0 0.00 0.58 0.58 92 1015.8
20260905153102 73 0 0.0 4.0 0.00 0.58 0.58 94 1015.9
20260905151606 72 0 1.0 3.0 0.00 0.58 0.58 97 1015.8
20260905150104 71 0 0.0 4.0 0.00 0.58 0.58 97 1015.7
20260905144600 71 0 0.0 3.0 0.00 0.58 0.58 97 1014.7
20260905143109 71 360 0.0 3.0 0.00 0.58 0.58 97 1013.9
20260905141615 70 360 0.0 2.0 0.01 0.58 0.58 97 1014.2
20260905140106 70 0 0.0 2.0 0.01 0.58 0.58 97 1014.5
20260905134607 70 0 0.0 2.0 0.01 0.58 0.58 97 1014.6
20260905133102 70 0 0.0 2.0 0.01 0.58 0.58 97 1015.1
20260905131608 70 0 0.0 1.0 0.01 0.58 0.57 97 1015.1
20260905130106 69 360 1.0 2.0 0.26 0.58 0.57 96 1015.8
20260905124602 69 360 0.0 2.0 0.36 0.58 0.57 96 1015.3
20260905123101 69 360 1.0 6.0 0.44 0.58 0.57 96 1015.6